(280537) = 2004 RL50

Discovered at Socorro on 2004-09-08 by LINEAR.

Orbit

Orbit type: Main Belt

Note: WebGL enabled browser required.

epoch2023-09-13.0
epoch JD2460200.5
perihelion date2023-06-28.12439
perihelion JD2460123.62439
argument of perihelion (°)187.75884
ascending node (°)149.85793
inclination (°)3.74541
eccentricity0.2034257
perihelion distance (AU)1.9318043
Tisserand w.r.t. Jupiter3.5
ΔV w.r.t. Earth (km/sec)8.8
semimajor axis (AU)2.4251400
mean anomaly (°)20.06260
mean daily motion (°/day)0.26097480
aphelion distance (AU)2.918
period (years)3.78
P-vector [x]0.92451276
P-vector [y]-0.34609772
P-vector [z]-0.15966376
Q-vector [x]0.37973701
Q-vector [y]0.87242377
Q-vector [z]0.30769556
absolute magnitude17.35
phase slope0.15
uncertainty0
referenceMPEC 2024-A158
observations used470
oppositions13
arc length (days)8040
first opposition used2002
last opposition used2024
residual rms (arc-secs)0.74
perturbers coarse indicatorM-v
perturbers precise indicator003Ek
first observation date used2002-01-08.0
last observation date used2024-01-13.0
computer nameMPCLINUX
JD of orbit computation2456760.684188
perihelion JD uncertainty (days)9.8233E-05
argument of perihelion uncertainty (°)7.9809E-05
ascending node uncertainty (°)7.7480E-05
inclination uncertainty (°)5.0816E-06
eccentricity uncertainty 4.5937E-08
perihelion distance uncertainty (AU)1.1180E-07
Minimum Orbit Intersection Distances (in AU)
for orbit epoch: 2460200.5, reference: E2024-AF8
Mercury1.53512
Venus1.20552
Earth0.92198
Mars0.55118
Jupiter2.4564
Saturn6.32254
Uranus15.5309
Neptune27.4766

Observations

482 total observations over interval: 2002 01 08.26832 – 2024 01 13.108427
These data are available for download (format description).

Date (UT) J2000 RA J2000 Dec Magn Location Ref
2002 01 08.26832 07 32 07.06 +17 57 00.5 21.4 V 691 – Steward Observatory, Kitt Peak-Spacewatch MPS 179340
2002 01 08.28992 07 32 05.67 +17 57 04.9 21.1 V 691 – Steward Observatory, Kitt Peak-Spacewatch MPS 179340
2002 01 08.31154 07 32 04.21 +17 57 09.2 21.4 V 691 – Steward Observatory, Kitt Peak-Spacewatch MPS 179340
2004 08 27.32558 23 49 26.88 -03 15 58.4 19.0 R 699 – Lowell Observatory-LONEOS MPS 113054
2004 08 27.33855 23 49 26.44 -03 16 04.9   699 – Lowell Observatory-LONEOS MPS 113054
2004 08 27.35150 23 49 25.94 -03 16 09.6   699 – Lowell Observatory-LONEOS MPS 113054
2004 08 27.36445 23 49 25.56 -03 16 14.8   699 – Lowell Observatory-LONEOS MPS 113054
2004 09 08.23111 23 42 10.57 -04 46 46.6 19.0   704 – Lincoln Laboratory ETS, New Mexico MPS 112860
2004 09 08.24256 23 42 10.06 -04 46 52.7 19.3   704 – Lincoln Laboratory ETS, New Mexico MPS 112860
2004 09 08.25406 23 42 09.50 -04 46 58.3 19.2   704 – Lincoln Laboratory ETS, New Mexico MPS 112860
2004 09 08.26549 23 42 08.99 -04 47 03.4 19.4   704 – Lincoln Laboratory ETS, New Mexico MPS 112860
2004 09 08.27701 23 42 08.47 -04 47 09.6 19.4   704 – Lincoln Laboratory ETS, New Mexico MPS 112860
2004 09 09.23558 23 41 27.64 -04 54 53.6 19.5   704 – Lincoln Laboratory ETS, New Mexico MPS 112860
2004 09 09.24792 23 41 27.10 -04 54 59.8 19.5   704 – Lincoln Laboratory ETS, New Mexico MPS 112860
2004 09 09.26009 23 41 26.55 -04 55 05.6 19.9   704 – Lincoln Laboratory ETS, New Mexico MPS 112860
2004 09 09.27195 23 41 26.02 -04 55 10.8 19.7   704 – Lincoln Laboratory ETS, New Mexico MPS 112860
2004 09 09.28359 23 41 25.43 -04 55 15.5 19.6   704 – Lincoln Laboratory ETS, New Mexico MPS 112860
2004 09 10.34462 23 40 39.48 -05 03 49.9 19.0 V 691 – Steward Observatory, Kitt Peak-Spacewatch MPS 112860
2004 09 10.37454 23 40 38.08 -05 04 04.4 19.0 V 691 – Steward Observatory, Kitt Peak-Spacewatch MPS 112860
2004 09 10.40614 23 40 36.61 -05 04 19.7 19.0 V 691 – Steward Observatory, Kitt Peak-Spacewatch MPS 112860
2004 09 13.28638 23 38 30.17 -05 27 32.1 18.2 R 699 – Lowell Observatory-LONEOS MPS 120510
2004 09 13.30579 23 38 29.25 -05 27 41.6   699 – Lowell Observatory-LONEOS MPS 120510
2004 09 13.32524 23 38 28.24 -05 27 49.9   699 – Lowell Observatory-LONEOS MPS 120510
2004 09 13.34469 23 38 27.32 -05 28 00.0   699 – Lowell Observatory-LONEOS MPS 120510
2004 09 14.18075 23 37 50.58 -05 34 40.6 18.4 R 699 – Lowell Observatory-LONEOS MPS 120510
2004 09 14.20019 23 37 49.69 -05 34 50.3   699 – Lowell Observatory-LONEOS MPS 120510
2004 09 14.21969 23 37 48.78 -05 34 59.0   699 – Lowell Observatory-LONEOS MPS 120510
2004 09 14.23915 23 37 47.81 -05 35 09.0   699 – Lowell Observatory-LONEOS MPS 120510
2004 09 15.23923 23 37 03.25 -05 43 05.1 18.9 V 691 – Steward Observatory, Kitt Peak-Spacewatch MPS 113054
2004 09 15.26744 23 37 01.91 -05 43 18.4 18.9 V 691 – Steward Observatory, Kitt Peak-Spacewatch MPS 113054
2004 09 15.30129 23 37 00.29 -05 43 34.5 18.9 V 691 – Steward Observatory, Kitt Peak-Spacewatch MPS 113054
2004 09 16.26080 23 36 17.61 -05 51 07.9 19.0 V 691 – Steward Observatory, Kitt Peak-Spacewatch MPS 113054
2004 09 16.28833 23 36 16.30 -05 51 20.9 19.0 V 691 – Steward Observatory, Kitt Peak-Spacewatch MPS 113054
2004 09 16.31950 23 36 14.81 -05 51 35.5 19.0 V 691 – Steward Observatory, Kitt Peak-Spacewatch MPS 113054
2004 09 17.26929 23 35 32.60 -05 58 59.4 19.5   704 – Lincoln Laboratory ETS, New Mexico MPS 113054
2004 09 17.28097 23 35 32.09 -05 59 05.5 19.9   704 – Lincoln Laboratory ETS, New Mexico MPS 113054
2004 09 17.29264 23 35 31.48 -05 59 09.5 19.4   704 – Lincoln Laboratory ETS, New Mexico MPS 113054
2004 09 17.30432 23 35 31.03 -05 59 16.3 19.4   704 – Lincoln Laboratory ETS, New Mexico MPS 113054
2004 09 17.31601 23 35 30.47 -05 59 21.2 19.6   704 – Lincoln Laboratory ETS, New Mexico MPS 113054
2004 09 22.15243 23 32 00.38 -06 35 33.3 19.6 V 691 – Steward Observatory, Kitt Peak-Spacewatch MPS 114440
2004 09 22.18373 23 31 59.00 -06 35 47.2 19.6 V 691 – Steward Observatory, Kitt Peak-Spacewatch MPS 114440
2004 09 22.21048 23 31 57.78 -06 35 58.3 19.4 V 691 – Steward Observatory, Kitt Peak-Spacewatch MPS 114440
2004 10 05.15668 23 24 11.02 -07 53 33.1 19.2 R 699 – Lowell Observatory-LONEOS MPS 115781
2004 10 05.17373 23 24 10.32 -07 53 38.0   699 – Lowell Observatory-LONEOS MPS 115781
2004 10 05.19076 23 24 09.87 -07 53 43.0   699 – Lowell Observatory-LONEOS MPS 115781
2004 10 05.20784 23 24 09.34 -07 53 47.8   699 – Lowell Observatory-LONEOS MPS 115781
2004 10 06.21819 23 23 41.67 -07 58 20.3 19.6   704 – Lincoln Laboratory ETS, New Mexico MPS 115781
2004 10 06.22951 23 23 41.34 -07 58 22.0 19.8   704 – Lincoln Laboratory ETS, New Mexico MPS 115781
2004 10 06.24079 23 23 40.93 -07 58 25.4 19.7   704 – Lincoln Laboratory ETS, New Mexico MPS 115781
2004 10 06.25223 23 23 40.69 -07 58 28.5 19.5   704 – Lincoln Laboratory ETS, New Mexico MPS 115781
2004 10 09.16023 23 22 30.96 -08 10 10.1 19.3   704 – Lincoln Laboratory ETS, New Mexico MPS 116657
2004 10 09.17135 23 22 30.68 -08 10 12.4 19.4   704 – Lincoln Laboratory ETS, New Mexico MPS 116657
2004 10 09.18265 23 22 30.47 -08 10 14.2 19.9   704 – Lincoln Laboratory ETS, New Mexico MPS 116657
2004 10 09.19360 23 22 30.11 -08 10 16.2 19.9   704 – Lincoln Laboratory ETS, New Mexico MPS 116657
2004 10 12.09845 23 21 34.77 -08 19 48.3 19.9 V 691 – Steward Observatory, Kitt Peak-Spacewatch MPS 116657
2004 10 12.11537 23 21 34.45 -08 19 51.7 20.0 V 691 – Steward Observatory, Kitt Peak-Spacewatch MPS 116657
2004 10 12.13225 23 21 34.13 -08 19 54.3 19.8 V 691 – Steward Observatory, Kitt Peak-Spacewatch MPS 116657
2004 11 13.18845 23 28 21.81 -07 46 28.7 20.2 R 703 – Catalina Sky Survey MPS 119853
2004 11 13.19615 23 28 22.22 -07 46 26.3 19.7 R 703 – Catalina Sky Survey MPS 119853
2004 11 13.20387 23 28 22.49 -07 46 23.3 20.0 R 703 – Catalina Sky Survey MPS 119853
2004 11 13.21160 23 28 22.82 -07 46 22.7 20.9 R 703 – Catalina Sky Survey MPS 119853
2006 02 01.16170 08 49 42.32 +15 48 20.1 21.4 V 691 – Steward Observatory, Kitt Peak-Spacewatch MPS 179340
2006 02 01.17906 08 49 41.20 +15 48 26.2 21.6 V 691 – Steward Observatory, Kitt Peak-Spacewatch MPS 179340
2006 02 01.19637 08 49 40.21 +15 48 31.3 21.1 V 691 – Steward Observatory, Kitt Peak-Spacewatch MPS 179340
2008 10 01.42116 03 05 28.25 +11 35 38.6 20.1 V 691 – Steward Observatory, Kitt Peak-Spacewatch MPS 257902
2008 10 01.43879 03 05 27.84 +11 35 34.4 20.1 V 691 – Steward Observatory, Kitt Peak-Spacewatch MPS 257902
2008 10 01.45641 03 05 27.46 +11 35 29.4 20.1 V 691 – Steward Observatory, Kitt Peak-Spacewatch MPS 257902
2008 10 08.44713 03 02 18.73 +11 02 06.3 19.9 V 691 – Steward Observatory, Kitt Peak-Spacewatch MPS 259232
2008 10 08.46474 03 02 18.09 +11 02 01.0 19.9 V 691 – Steward Observatory, Kitt Peak-Spacewatch MPS 259232
2008 10 08.48239 03 02 17.47 +11 01 55.7 20.0 V 691 – Steward Observatory, Kitt Peak-Spacewatch MPS 259232
2008 10 20.76137 02 53 22.67 +09 55 04.8 19.0 C D35 – Lulin Observatory MPS 260577
2008 10 20.76953 02 53 22.21 +09 55 02.3 19.3 C D35 – Lulin Observatory MPS 260578
2008 10 20.77758 02 53 21.78 +09 54 59.4 19.2 C D35 – Lulin Observatory MPS 260578
2008 10 21.21843 02 52 59.36 +09 52 29.3 19.8 V 691 – Steward Observatory, Kitt Peak-Spacewatch MPS 260578
2008 10 21.23605 02 52 58.40 +09 52 22.9 19.6 V 691 – Steward Observatory, Kitt Peak-Spacewatch MPS 260578
2008 10 21.25388 02 52 57.43 +09 52 17.4 19.6 V 691 – Steward Observatory, Kitt Peak-Spacewatch MPS 260578
2008 10 25.35966 02 49 14.62 +09 29 13.5 18.9 V G96 – Mt. Lemmon Survey MPS 261489
2008 10 25.36293 02 49 14.48 +09 29 12.6 19.0 V G96 – Mt. Lemmon Survey MPS 261489
2008 10 25.36618 02 49 14.26 +09 29 11.6 18.9 V G96 – Mt. Lemmon Survey MPS 261489
2008 10 25.36941 02 49 14.08 +09 29 10.6 18.9 V G96 – Mt. Lemmon Survey MPS 261489
2008 10 30.25568 02 44 35.68 +09 02 32.1 19.4   704 – Lincoln Laboratory ETS, New Mexico MPS 261489
2008 10 30.26742 02 44 34.99 +09 02 28.5 19.6   704 – Lincoln Laboratory ETS, New Mexico MPS 261489
2008 10 30.27906 02 44 34.25 +09 02 24.9 19.8   704 – Lincoln Laboratory ETS, New Mexico MPS 261489
